STARLINK-32268 (60372 NORAD) Tracking and Keplerian Element Data

This shows tracking and keplerian element data for the satellite.

Feedback or suggestion? Click here.




ElementValue
Catalog60372
NameSTARLINK-32268
Epoch Orbit1201
Epoch Day286.73393828
Epoch Year2024
RAAN177.7809
Inclination53.1595
Eccentricity0.0001079
Argument of Perigee88.8909
Mean Anonmoly271.2219
Mean Motion15.39648668
Decay Rate2.933E-05
L11 60372U 24138T 24286.73393828 .00002933 00000+0 83195-4 0 9997
L22 60372 53.1595 177.7809 0001079 88.8909 271.2219 15.39648668 12010



Live tracking and technical data element details for STARLINK-32268 (NORAD 60372). STARLINK-32268 can be tracked NOW for your location showing map with azimuth and elevation plus other details from your city location.







IsCatalogInMostPopularTable: catalog: 60372, numindb: 7
Update: records affected: 1



GetName: 60372 STARLINK-32268

Hit Count: updated at: Wed, 04 Dec 2024 19:45:43 GMT